{"data":{"norad_id":67104,"epoch":"2026-05-25T04:34:38.254656Z","epoch_age_seconds":62502,"freshness":"FRESH","line1":"1 67104U 25299C   26145.19072054  .00026307  00000+0  96147-3 0  9998","line2":"2 67104  43.0040  97.1615 0003175 243.7321 116.3205 15.27598085 24811","mean_motion":15.27598085,"eccentricity":0.0003175,"inclination_deg":43.004,"raan_deg":97.1615,"arg_perigee_deg":243.7321,"mean_anomaly_deg":116.3205,"bstar":0.00096147,"rev_number":2481,"period_min":94.265632704037,"perigee_km":480.81653418578,"apogee_km":485.17335296995,"semimajor_km":6861.1319435779,"source":"CELESTRAK","updated_at":"2026-05-25T13:38:21.472757Z"}}